Location: Canyon City
(32.5951°N, 116.5278°W)
Time: 02:03:10
(UTC+00:00)

Lacrosse 5 rocket - Pass Details

Date: 08 September 2024
Orbit: 431 x 565 km, 57.0° (Epoch: 03 October)

Event Time Altitude Azimuth Distance (km) Brightness Sun altitude
Exits shadow 12:19:08 - 189° (S) 1,886 3.8 -14.6°
Reaches altitude 10° 12:19:59 10° 184° (S) 1,567 3.4 -14.4°
Maximum altitude 12:23:01 28° 123° (ESE) 855 2.7 -13.8°
Drops below altitude 10° 12:26:01 10° 62° (ENE) 1,538 5.0 -13.2°
Sets 12:28:16 0° 51° (NE) 2,401 5.9 -12.7°
